Weather History for Torrington, WY

Change the Weather History Date:

Saturday, March 2, 2013

  Actual Average Record
Temperature  
Mean Temperature 46 °F 34 °F  
Max Temperature 61 °F 48 °F 66 °F (2009)
Min Temperature 31 °F 21 °F -5 °F (2002)
Degree Days  
Heating Degree Days 19 31  
Month to date heating degree days 51 62  
Since 1 July heating degree days 4664 4906  
Cooling Degree Days 0 0  
Month to date cooling degree days 0 0  
Year to date cooling degree days 0 0  
Moisture  
Dew Point 27 °F    
Average Humidity 49    
Maximum Humidity 75    
Minimum Humidity 23    
Precipitation  
Precipitation 0.00 in 0.00 in 0.01 in (2007)
Month to date precipitation 0.00 0.01  
Year to date precipitation 0.30 0.61  
Sea Level Pressure  
Sea Level Pressure 30.15 in    
Wind  
Wind Speed 11 mph (WNW)    
Max Wind Speed 26 mph    
Max Gust Speed 35 mph    
Visibility 10 miles    
Events      
T = Trace of Precipitation, MM = Missing Value Source: NWS Daily Summary

Daily Weather History Graph

Daily Weather History Graph

Search for Another Location

Airport:

Trip Planner

Search our weather history database for the weather conditions in past years. The results will help you decide how hot, cold, wet, or windy it might be!

Date:

Astronomy

Mar. 02, 2013 Rise Set
Actual Time 6:29 AM MST 5:48 PM MST
Civil Twilight 6:01 AM MST 6:16 PM MST
Nautical Twilight 5:29 AM MST 6:48 PM MST
Astronomical Twilight 4:56 AM MST 7:21 PM MST
Moon 11:37 PM MST (3/2) 8:53 AM MST (3/2)
Length of Visible Light 12h 14m
Length of Day
11h 18m
Waning Gibbous, 73% of the Moon is Illuminated
Mar 2
Waning Gibbous
Mar 4
Last Quarter
Mar 11
New
Mar 19
First Quarter
Mar 27
Full

Hourly Weather History & Observations

Time (MST) Temp. Windchill Dew Point Humidity Pressure Visibility Wind Dir Wind Speed Gust Speed Precip Events Conditions
12:53 AM 37.0 °F 30.4 °F 28.0 °F 70% 30.24 in 10.0 mi WNW 9.2 mph - N/A   Overcast
1:53 AM 33.1 °F 26.1 °F 27.0 °F 78% 30.27 in 10.0 mi North 8.1 mph - N/A   Clear
2:53 AM 33.1 °F 27.7 °F 27.0 °F 78% 30.26 in 10.0 mi NNW 5.8 mph - N/A   Clear
3:53 AM 35.1 °F 28.6 °F 27.0 °F 72% 30.26 in 10.0 mi WNW 8.1 mph - N/A   Clear
4:53 AM 36.0 °F 29.0 °F 27.0 °F 70% 30.26 in 10.0 mi WNW 9.2 mph - N/A   Clear
5:53 AM 35.1 °F 28.6 °F 27.0 °F 72% 30.25 in 10.0 mi WNW 8.1 mph - N/A   Clear
6:53 AM 39.0 °F 30.3 °F 27.0 °F 62% 30.25 in 10.0 mi WNW 16.1 mph 23.0 mph N/A   Clear
7:53 AM 41.0 °F 33.9 °F 27.0 °F 57% 30.25 in 10.0 mi West 12.7 mph - N/A   Clear
8:53 AM 45.0 °F 37.9 °F 27.0 °F 49% 30.23 in 10.0 mi West 16.1 mph 21.9 mph N/A   Clear
9:53 AM 50.0 °F - 27.0 °F 41% 30.20 in 10.0 mi WNW 27.6 mph 34.5 mph N/A   Clear
10:53 AM 55.0 °F - 27.0 °F 34% 30.19 in 10.0 mi WNW 17.3 mph 26.5 mph N/A   Clear
11:53 AM 57.0 °F - 26.1 °F 30% 30.15 in 10.0 mi WNW 19.6 mph 27.6 mph N/A   Clear
12:53 PM 59.0 °F - 24.1 °F 26% 30.11 in 10.0 mi WNW 18.4 mph 24.2 mph N/A   Clear
1:53 PM 60.1 °F - 24.1 °F 25% 30.10 in 10.0 mi NW 12.7 mph 24.2 mph N/A   Clear
2:53 PM 59.0 °F - 23.0 °F 25% 30.10 in 10.0 mi NW 13.8 mph 26.5 mph N/A   Clear
3:53 PM 60.1 °F - 23.0 °F 24% 30.07 in 10.0 mi WNW 16.1 mph 24.2 mph N/A   Clear
4:53 PM 55.9 °F - 27.0 °F 33% 30.08 in 10.0 mi West 16.1 mph 21.9 mph N/A   Clear
6:53 PM 48.0 °F - 28.9 °F 48% 30.09 in 10.0 mi West 10.4 mph - N/A   Clear
7:53 PM 44.1 °F 41.5 °F 28.9 °F 55% 30.07 in 10.0 mi WSW 4.6 mph - N/A   Clear
8:53 PM 43.0 °F 41.3 °F 28.9 °F 58% 30.05 in 10.0 mi West 3.5 mph - N/A   Clear
9:53 PM 43.0 °F 38.2 °F 28.9 °F 58% 30.01 in 10.0 mi WNW 8.1 mph - N/A   Clear
10:53 PM 37.9 °F - 28.0 °F 68% 29.98 in 10.0 mi Calm Calm - N/A   Clear
11:53 PM 36.0 °F - 28.0 °F 73% 29.94 in 10.0 mi Calm Calm - N/A   Clear